Location: Casco Volunteer Fire Department
(44.5576°N, 87.6146°W)
Time: 08:21:29
(UTC+00:00)

Envisat - Visible Passes

Search period start: 12 March 2026 00:00
Search period end: 22 March 2026 00:00
Orbit: 761 x 763 km, 98.4° (Epoch: 11 March)

Date Brightness Start Highest point End Pass type
(mag) Time Alt. Az. Time Alt. Az. Time Alt. Az.
12 Mar 5.5 08:02:13 10° NNE 08:03:31 17° NE 08:03:31 17° NE visible
12 Mar 4.7 09:41:36 10° N 09:43:39 20° NNW 09:43:39 20° NNW visible
13 Mar 6.0 07:25:18 10° NE 07:25:23 10° NE 07:25:23 10° NE visible
13 Mar 4.6 09:03:15 10° N 09:05:32 26° N 09:05:32 26° N visible
14 Mar 5.0 08:25:23 10° NNE 08:27:24 24° NNE 08:27:24 24° NNE visible
14 Mar 4.9 10:05:37 10° NNW 10:07:32 16° NW 10:07:32 16° NW visible
15 Mar 5.6 07:47:58 10° NNE 07:49:17 17° NE 07:49:17 17° NE visible
15 Mar 4.5 09:26:52 10° N 09:29:24 25° NNW 09:29:24 25° NNW visible
16 Mar 4.5 08:48:43 10° N 08:51:17 30° N 08:51:17 30° N visible
16 Mar 5.1 10:30:34 10° NW 10:31:25 11° NW 10:31:25 11° NW visible
17 Mar 5.0 08:11:00 10° NNE 08:13:10 25° NE 08:13:10 25° NE visible
17 Mar 4.6 09:50:41 10° NNW 09:53:17 20° NW 09:53:17 20° NW visible
18 Mar 5.6 07:33:51 10° NE 07:35:02 15° NE 07:35:02 15° NE visible
18 Mar 4.2 09:12:13 10° N 09:15:10 31° NNW 09:15:10 31° NNW visible
19 Mar 4.4 08:34:14 10° NNE 08:37:02 34° NNE 08:37:02 34° NNE visible
19 Mar 4.8 10:14:55 10° NNW 10:17:11 14° NW 10:17:11 14° NW visible
20 Mar 5.1 07:56:42 10° NNE 07:58:55 23° NE 07:58:55 23° NE visible
20 Mar 4.3 09:35:53 10° N 09:39:03 26° NW 09:39:03 26° NW visible
21 Mar 5.8 07:19:56 10° NE 07:20:47 13° ENE 07:20:47 13° ENE visible
21 Mar 3.9 08:57:37 10° N 09:00:56 39° NNW 09:00:56 39° NNW visible
